This is the latest recevied weather packets stored in our database for station/object DK4MDA-13. If no packets are shown the sender has not sent any weather packets the latest 10 day(s).
| Time | Temp. | Humidity | Pressure | Rain* | Wind** | Luminosity | Snow |
|---|---|---|---|---|---|---|---|
| 1777288042 | 16.11° C | 47% | 1024 hPa | 0 mm | - | - | - |
| 1777287743 | 15.56° C | 45% | 1024.1 hPa | 0 mm | - | - | - |
| 1777287442 | 15.56° C | 46% | 1024 hPa | 0 mm | - | - | - |
| 1777287142 | 15.56° C | 48% | 1024.1 hPa | 0 mm | - | - | - |
| 1777286842 | 15.56° C | 46% | 1024.1 hPa | 0 mm | - | - | - |
| 1777286543 | 15° C | 47% | 1024.2 hPa | 0 mm | - | - | - |
| 1777286242 | 15° C | 48% | 1024.2 hPa | 0 mm | - | - | - |
| 1777285943 | 15° C | 49% | 1024.1 hPa | 0 mm | - | - | - |
| 1777285642 | 15.56° C | 45% | 1024.1 hPa | 0 mm | - | - | - |
| 1777285342 | 15.56° C | 48% | 1024.2 hPa | 0 mm | - | - | - |
| 1777285043 | 15.56° C | 45% | 1024.2 hPa | 0 mm | - | - | - |
| 1777284742 | 15° C | 46% | 1024.2 hPa | 0 mm | - | - | - |
| 1777284442 | 15° C | 46% | 1024.2 hPa | 0 mm | - | - | - |
| 1777284143 | 15.56° C | 45% | 1024.2 hPa | 0 mm | - | - | - |
| 1777283843 | 16.11° C | 48% | 1024.3 hPa | 0 mm | - | - | - |
| 1777283542 | 15.56° C | 47% | 1024.3 hPa | 0 mm | - | - | - |
| 1777283242 | 15° C | 49% | 1024.4 hPa | 0 mm | - | - | - |
| 1777282943 | 14.44° C | 51% | 1024.3 hPa | 0 mm | - | - | - |
| 1777282643 | 14.44° C | 52% | 1024.5 hPa | 0 mm | - | - | - |
| 1777282343 | 13.89° C | 47% | 1024.4 hPa | 0 mm | - | - | - |
| 1777282043 | 13.89° C | 52% | 1024.5 hPa | 0 mm | - | - | - |
| 1777281743 | 13.33° C | 52% | 1024.6 hPa | 0 mm | - | - | - |
| 1777281443 | 13.33° C | 52% | 1024.6 hPa | 0 mm | - | - | - |
| 1777281143 | 13.89° C | 53% | 1024.6 hPa | 0 mm | - | - | - |
| 1777280843 | 13.89° C | 54% | 1024.6 hPa | 0 mm | - | - | - |
* Rain latest hour (hover to see other rain measurements)
** Current wind speed in m/s (hover to see current wind gust speed)